Location: Ostrava
(49.8330°N, 18.2830°E)
Time: 19:34:59
(UTC+01:00)

Cosmos 2219 Rocket - Visible Passes

Search period start: 26 November 2014 00:00
Search period end: 06 December 2014 00:00
Orbit: 827 x 848 km, 71.0° (Epoch: 25 November)

Date Brightness Start Highest point End Pass type
(mag) Time Alt. Az. Time Alt. Az. Time Alt. Az.
26 Nov 4.2 17:38:15 10° N 17:39:46 11° NNE 17:40:14 11° NNE visible
26 Nov 4.4 19:20:43 10° NNW 19:21:57 16° N 19:21:57 16° N visible
27 Nov 4.2 17:22:10 10° N 17:23:23 11° NNE 17:24:24 10° NNE visible
27 Nov 4.2 19:04:29 10° NNW 19:06:08 17° N 19:06:08 17° N visible
28 Nov 4.2 17:06:08 10° N 17:07:00 10° NNE 17:07:52 10° NNE visible
28 Nov 4.0 18:48:14 10° NNW 18:50:20 19° N 18:50:20 19° N visible
28 Nov 5.0 20:31:55 10° NNW 20:32:04 11° NNW 20:32:04 11° NNW visible
29 Nov 4.2 16:50:27 10° NNE 16:50:37 10° NNE 16:50:48 10° NNE visible
29 Nov 3.8 18:32:00 10° NNW 18:34:35 21° N 18:34:35 21° N visible
29 Nov 4.8 20:15:38 10° NNW 20:16:19 14° NNW 20:16:19 14° NNW visible
30 Nov 3.6 18:15:46 10° NNW 18:18:52 23° NNE 18:18:52 23° NNE visible
30 Nov 4.5 19:59:21 10° NNW 20:00:36 17° NNW 20:00:36 17° NNW visible
01 Dec 3.5 17:59:31 10° NNW 18:03:13 23° NNE 18:03:13 23° NNE visible
01 Dec 4.2 19:43:04 10° NNW 19:44:57 22° NNW 19:44:57 22° NNW visible
02 Dec 3.4 17:43:17 10° NNW 17:47:37 23° NE 17:47:37 23° NE visible
02 Dec 3.8 19:26:48 10° NNW 19:29:22 28° NNW 19:29:22 28° NNW visible
03 Dec 3.4 17:27:03 10° NNW 17:31:26 22° NE 17:32:06 22° NE visible
03 Dec 3.3 19:10:31 10° NNW 19:13:52 37° NNW 19:13:52 37° NNW visible
04 Dec 3.4 17:10:49 10° N 17:15:06 21° NE 17:16:43 19° ENE visible
04 Dec 2.7 18:54:15 10° NNW 18:58:28 51° NNW 18:58:28 51° NNW visible
04 Dec 5.0 20:39:28 10° WNW 20:40:14 13° WNW 20:40:14 13° WNW visible
05 Dec 3.5 16:54:35 10° N 16:58:45 20° NE 17:01:28 15° ENE visible
05 Dec 2.1 18:37:58 10° NNW 18:43:14 73° NNE 18:43:14 73° NNE visible
05 Dec 4.7 20:23:03 10° NW 20:25:01 17° WNW 20:25:01 17° WNW visible
